This is the latest recevied weather packets stored in our database for station/object S59MA-6. If no packets are shown the sender has not sent any weather packets the latest 10 day(s).
| Time | Temp. | Humidity | Pressure | Rain* | Wind** | Luminosity | Snow |
|---|---|---|---|---|---|---|---|
| 1777737654 | 22.78° C | 39% | 1008.3 hPa | 4.06 mm | - | - | - |
| 1777737355 | 22.78° C | 38% | 1008.2 hPa | 3.05 mm | - | - | - |
| 1777736455 | 22.78° C | 38% | 1008.6 hPa | 2.03 mm | - | - | - |
| 1777735855 | 22.78° C | 37% | 1008.7 hPa | 1.02 mm | - | - | - |
| 1777735554 | 22.78° C | 38% | 1008.6 hPa | 1.02 mm | - | - | - |
| 1777735295 | 23.33° C | 38% | 1008.6 hPa | 0 mm | - | - | - |
| 1777735255 | 23.33° C | 38% | 1008.6 hPa | 0 mm | - | - | - |
| 1777734954 | 22.78° C | 38% | 1008.8 hPa | 0 mm | - | - | - |
| 1777734655 | 22.78° C | 39% | 1008.7 hPa | 0.51 mm | - | - | - |
| 1777734354 | 22.78° C | 39% | 1008.7 hPa | 0.51 mm | - | - | - |
| 1777734056 | 22.78° C | 38% | 1008.8 hPa | 0.51 mm | - | - | - |
| 1777733755 | 22.78° C | 38% | 1009 hPa | 0.51 mm | - | - | - |
| 1777732856 | 23.33° C | 38% | 1009 hPa | 0.51 mm | - | - | - |
| 1777731953 | 23.33° C | 38% | 1009.2 hPa | 0.51 mm | - | - | - |
| 1777731658 | 23.33° C | 39% | 1009.2 hPa | 0.51 mm | - | - | - |
| 1777731357 | 23.33° C | 38% | 1009.2 hPa | 0.51 mm | - | - | - |
| 1777731055 | 23.33° C | 39% | 1009.3 hPa | 0 mm | - | - | - |
| 1777730754 | 23.33° C | 39% | 1009.3 hPa | 0 mm | - | - | - |
| 1777730455 | 23.33° C | 39% | 1009.5 hPa | 0 mm | - | - | - |
| 1777730153 | 23.33° C | 38% | 1009.5 hPa | 0.51 mm | - | - | - |
| 1777729555 | 23.33° C | 39% | 1009.6 hPa | 1.52 mm | - | - | - |
| 1777729255 | 23.33° C | 39% | 1009.6 hPa | 1.52 mm | - | - | - |
| 1777728955 | 22.78° C | 37% | 1009.8 hPa | 3.56 mm | - | - | - |
| 1777728655 | 23.33° C | 39% | 1009.8 hPa | 3.56 mm | - | - | - |
| 1777728355 | 23.33° C | 39% | 1009.8 hPa | 135.89 mm | - | - | - |
* Rain latest hour (hover to see other rain measurements)
** Current wind speed in m/s (hover to see current wind gust speed)